Time,TemperatureF,DewpointF,PressureIn,WindDirection,WindDirectionDegrees,WindSpeedMPH,WindSpeedGustMPH,Humidity,HourlyPrecipIn,Conditions,Clouds,dailyrainin,SoftwareType,DateUTC
2013-08-04 00:00:00,61.0,60.1,29.81,South,190,3.0,3.0,97,0.00,,,0.00,Wunderground v.1.15,2013-08-04 03:00:00,
2013-08-04 00:10:00,61.3,60.2,29.80,SW,214,3.0,15.0,96,0.00,,,0.00,Wunderground v.1.15,2013-08-04 03:10:00,
2013-08-04 00:19:00,61.4,60.2,29.80,South,184,4.0,15.0,96,0.00,,,0.00,Wunderground v.1.15,2013-08-04 03:19:00,
2013-08-04 00:30:00,61.3,60.2,29.80,South,186,4.0,4.0,96,0.00,,,0.00,Wunderground v.1.15,2013-08-04 03:30:00,
2013-08-04 00:40:00,61.4,60.2,29.80,SSW,205,4.0,15.0,96,0.00,,,0.00,Wunderground v.1.15,2013-08-04 03:40:00,
2013-08-04 00:50:00,61.5,60.3,29.80,SSW,201,4.0,15.0,96,0.00,,,0.00,Wunderground v.1.15,2013-08-04 03:50:00,
2013-08-04 01:00:00,61.5,60.3,29.80,SW,215,4.0,4.0,96,0.00,,,0.00,Wunderground v.1.15,2013-08-04 04:00:00,
2013-08-04 01:10:00,61.6,60.4,29.80,South,187,4.0,15.0,96,0.00,,,0.00,Wunderground v.1.15,2013-08-04 04:10:00,
2013-08-04 01:20:00,61.7,60.5,29.80,SSW,207,4.0,15.0,96,0.00,,,0.00,Wunderground v.1.15,2013-08-04 04:20:00,
2013-08-04 01:30:00,61.6,60.4,29.80,South,177,3.0,15.0,96,0.00,,,0.00,Wunderground v.1.15,2013-08-04 04:30:00,
2013-08-04 01:40:00,61.4,60.2,29.80,South,176,3.0,15.0,96,0.00,,,0.00,Wunderground v.1.15,2013-08-04 04:40:00,
2013-08-04 01:49:00,61.2,60.1,29.80,SW,232,3.0,3.0,96,0.00,,,0.00,Wunderground v.1.15,2013-08-04 04:49:00,
2013-08-04 01:59:00,61.1,60.0,29.80,SSW,193,3.0,3.0,96,0.00,,,0.00,Wunderground v.1.15,2013-08-04 04:59:00,
2013-08-04 02:10:00,61.0,59.9,29.80,South,187,3.0,3.0,96,0.00,,,0.00,Wunderground v.1.15,2013-08-04 05:10:00,
2013-08-04 02:20:00,60.9,59.8,29.79,SSE,165,3.0,15.0,96,0.00,,,0.00,Wunderground v.1.15,2013-08-04 05:20:00,
2013-08-04 02:30:00,60.7,59.6,29.79,SSW,201,3.0,3.0,96,0.00,,,0.00,Wunderground v.1.15,2013-08-04 05:30:00,
2013-08-04 02:39:00,60.7,59.6,29.79,South,172,3.0,15.0,96,0.00,,,0.00,Wunderground v.1.15,2013-08-04 05:39:00,
2013-08-04 02:50:00,60.6,59.5,29.79,SSW,197,2.0,15.0,96,0.00,,,0.00,Wunderground v.1.15,2013-08-04 05:50:00,
2013-08-04 03:00:00,60.5,59.4,29.79,SE,131,3.0,15.0,96,0.00,,,0.00,Wunderground v.1.15,2013-08-04 06:00:00,
2013-08-04 03:10:00,60.4,59.3,29.78,SSE,166,2.0,15.0,96,0.00,,,0.00,Wunderground v.1.15,2013-08-04 06:10:00,
2013-08-04 03:20:00,60.2,59.1,29.79,South,188,2.0,2.0,96,0.00,,,0.01,Wunderground v.1.15,2013-08-04 06:20:00,
2013-08-04 03:30:00,60.0,58.9,29.79,SSW,197,2.0,15.0,96,0.00,,,0.01,Wunderground v.1.15,2013-08-04 06:30:00,
2013-08-04 03:40:00,59.9,58.8,29.79,South,186,2.0,15.0,96,0.00,,,0.01,Wunderground v.1.15,2013-08-04 06:40:00,
2013-08-04 03:50:00,59.9,58.8,29.79,SSE,168,2.0,2.0,96,0.00,,,0.01,Wunderground v.1.15,2013-08-04 06:50:00,
2013-08-04 04:00:00,59.9,58.8,29.79,South,179,1.0,15.0,96,0.00,,,0.01,Wunderground v.1.15,2013-08-04 07:00:00,
2013-08-04 04:10:00,59.7,58.6,29.79,South,190,2.0,15.0,96,0.00,,,0.01,Wunderground v.1.15,2013-08-04 07:10:00,
2013-08-04 04:19:00,59.8,58.7,29.80,South,174,2.0,15.0,96,0.00,,,0.01,Wunderground v.1.15,2013-08-04 07:19:00,
2013-08-04 04:30:00,59.9,58.8,29.80,SW,214,2.0,15.0,96,0.00,,,0.01,Wunderground v.1.15,2013-08-04 07:30:00,
2013-08-04 04:40:00,60.1,59.0,29.80,South,188,2.0,15.0,96,0.00,,,0.01,Wunderground v.1.15,2013-08-04 07:40:00,
2013-08-04 04:50:00,60.2,59.1,29.80,SW,214,3.0,3.0,96,0.00,,,0.01,Wunderground v.1.15,2013-08-04 07:50:00,
2013-08-04 05:00:00,60.3,59.2,29.80,SSE,167,1.0,15.0,96,0.00,,,0.01,Wunderground v.1.15,2013-08-04 08:00:00,
2013-08-04 05:10:00,60.0,58.9,29.80,South,179,2.0,2.0,96,0.00,,,0.01,Wunderground v.1.15,2013-08-04 08:10:00,
2013-08-04 05:20:00,59.8,58.7,29.81,SSW,197,2.0,2.0,96,0.00,,,0.01,Wunderground v.1.15,2013-08-04 08:20:00,
2013-08-04 05:30:00,59.5,58.4,29.80,South,184,1.0,15.0,96,0.00,,,0.01,Wunderground v.1.15,2013-08-04 08:30:00,
2013-08-04 05:40:00,59.5,58.6,29.81,SSW,207,3.0,15.0,97,0.00,,,0.01,Wunderground v.1.15,2013-08-04 08:40:00,
2013-08-04 05:50:00,59.5,58.4,29.81,South,172,4.0,4.0,96,0.00,,,0.01,Wunderground v.1.15,2013-08-04 08:50:00,
2013-08-04 05:59:00,59.4,58.3,29.82,SSW,201,2.0,15.0,96,0.00,,,0.01,Wunderground v.1.15,2013-08-04 08:59:00,
2013-08-04 06:09:00,59.4,58.3,29.82,SSW,207,3.0,15.0,96,0.00,,,0.01,Wunderground v.1.15,2013-08-04 09:09:00,
2013-08-04 06:19:00,59.3,58.2,29.82,SSW,207,4.0,4.0,96,0.00,,,0.01,Wunderground v.1.15,2013-08-04 09:19:00,
2013-08-04 06:30:00,59.4,58.3,29.82,South,190,3.0,15.0,96,0.00,,,0.01,Wunderground v.1.15,2013-08-04 09:30:00,
2013-08-04 06:40:00,59.9,58.5,29.82,South,180,3.0,3.0,95,0.00,,,0.01,Wunderground v.1.15,2013-08-04 09:40:00,
2013-08-04 06:50:00,60.2,58.8,29.82,South,181,4.0,4.0,95,0.00,,,0.01,Wunderground v.1.15,2013-08-04 09:50:00,
2013-08-04 07:00:00,60.6,59.2,29.82,SSW,197,4.0,15.0,95,0.00,,,0.01,Wunderground v.1.15,2013-08-04 10:00:00,
2013-08-04 07:10:00,61.0,59.3,29.82,ESE,110,4.0,15.0,94,0.00,,,0.01,Wunderground v.1.15,2013-08-04 10:10:00,
2013-08-04 07:20:00,61.6,59.9,29.82,SW,217,2.0,2.0,94,0.00,,,0.01,Wunderground v.1.15,2013-08-04 10:20:00,
2013-08-04 07:30:00,62.2,60.2,29.83,SSW,194,1.0,15.0,93,0.00,,,0.01,Wunderground v.1.15,2013-08-04 10:30:00,
2013-08-04 07:40:00,62.7,60.6,29.83,SSW,198,2.0,15.0,93,0.00,,,0.01,Wunderground v.1.15,2013-08-04 10:40:00,
2013-08-04 07:50:00,63.2,60.8,29.83,SSE,168,1.0,15.0,92,0.00,,,0.01,Wunderground v.1.15,2013-08-04 10:50:00,
2013-08-04 08:00:00,63.9,61.2,29.83,SSE,150,1.0,1.0,91,0.00,,,0.01,Wunderground v.1.15,2013-08-04 11:00:00,
2013-08-04 08:10:00,64.5,61.2,29.83,South,173,2.0,2.0,89,0.00,,,0.01,Wunderground v.1.15,2013-08-04 11:10:00,
2013-08-04 08:20:00,64.5,60.9,29.83,SSW,193,3.0,15.0,88,0.00,,,0.01,Wunderground v.1.15,2013-08-04 11:20:00,
2013-08-04 08:30:00,65.1,61.5,29.83,South,185,3.0,15.0,88,0.00,,,0.01,Wunderground v.1.15,2013-08-04 11:30:00,
2013-08-04 08:40:00,65.4,61.4,29.83,South,177,3.0,15.0,87,0.00,,,0.01,Wunderground v.1.15,2013-08-04 11:40:00,
2013-08-04 08:50:00,66.0,62.0,29.83,South,191,3.0,15.0,87,0.00,,,0.01,Wunderground v.1.15,2013-08-04 11:50:00,
2013-08-04 09:00:00,66.3,61.7,29.83,SW,217,3.0,15.0,85,0.00,,,0.01,Wunderground v.1.15,2013-08-04 12:00:00,
2013-08-04 09:10:00,66.6,61.6,29.84,SW,218,3.0,3.0,84,0.00,,,0.01,Wunderground v.1.15,2013-08-04 12:10:00,
2013-08-04 09:19:00,67.4,62.1,29.84,SSW,198,3.0,15.0,83,0.00,,,0.01,Wunderground v.1.15,2013-08-04 12:19:00,
2013-08-04 09:30:00,67.9,62.2,29.84,SW,218,3.0,15.0,82,0.00,,,0.01,Wunderground v.1.15,2013-08-04 12:30:00,
2013-08-04 09:40:00,68.6,62.9,29.84,East,79,3.0,3.0,82,0.00,,,0.01,Wunderground v.1.15,2013-08-04 12:40:00,
2013-08-04 09:49:00,69.0,62.9,29.83,SSW,195,3.0,3.0,81,0.00,,,0.01,Wunderground v.1.15,2013-08-04 12:49:00,
2013-08-04 09:59:00,69.5,62.7,29.83,West,264,3.0,3.0,79,0.00,,,0.01,Wunderground v.1.15,2013-08-04 12:59:00,
2013-08-04 10:10:00,70.3,63.5,29.83,SW,222,3.0,15.0,79,0.00,,,0.01,Wunderground v.1.15,2013-08-04 13:10:00,
2013-08-04 10:19:00,70.2,63.0,29.83,SW,224,4.0,15.0,78,0.00,,,0.01,Wunderground v.1.15,2013-08-04 13:19:00,
2013-08-04 10:30:00,70.4,63.9,29.83,SSE,159,5.0,5.0,80,0.00,,,0.01,Wunderground v.1.15,2013-08-04 13:30:00,
2013-08-04 10:40:00,70.9,63.0,29.83,SSW,212,4.0,15.0,76,0.00,,,0.01,Wunderground v.1.15,2013-08-04 13:40:00,
2013-08-04 10:49:00,71.6,62.5,29.83,SW,216,3.0,3.0,73,0.00,,,0.01,Wunderground v.1.15,2013-08-04 13:49:00,
2013-08-04 11:00:00,71.7,62.6,29.83,WNW,302,4.0,4.0,73,0.00,,,0.01,Wunderground v.1.15,2013-08-04 14:00:00,
2013-08-04 11:10:00,72.2,61.5,29.83,SSW,201,3.0,15.0,69,0.00,,,0.01,Wunderground v.1.15,2013-08-04 14:10:00,
2013-08-04 11:20:00,72.3,61.6,29.83,SW,232,4.0,15.0,69,0.00,,,0.01,Wunderground v.1.15,2013-08-04 14:20:00,
2013-08-04 11:30:00,72.7,62.3,29.83,SSW,201,4.0,4.0,70,0.00,,,0.01,Wunderground v.1.15,2013-08-04 14:30:00,
2013-08-04 11:40:00,73.1,62.7,29.83,SSE,162,3.0,15.0,70,0.00,,,0.01,Wunderground v.1.15,2013-08-04 14:40:00,
2013-08-04 11:50:00,74.1,63.3,29.83,WSW,252,3.0,3.0,69,0.00,,,0.01,Wunderground v.1.15,2013-08-04 14:50:00,
2013-08-04 12:00:00,73.8,62.6,29.83,SSW,192,3.0,3.0,68,0.00,,,0.01,Wunderground v.1.15,2013-08-04 15:00:00,
2013-08-04 12:10:00,73.9,62.7,29.82,SSW,205,4.0,15.0,68,0.00,,,0.01,Wunderground v.1.15,2013-08-04 15:10:00,
2013-08-04 12:20:00,73.9,62.2,29.82,SSW,201,4.0,15.0,67,0.00,,,0.01,Wunderground v.1.15,2013-08-04 15:20:00,
2013-08-04 12:30:00,74.3,61.8,29.82,SE,145,5.0,15.0,65,0.00,,,0.01,Wunderground v.1.15,2013-08-04 15:30:00,
2013-08-04 12:40:00,73.9,60.1,29.82,SSW,200,5.0,5.0,62,0.00,,,0.01,Wunderground v.1.15,2013-08-04 15:40:00,
2013-08-04 12:50:00,74.4,61.4,29.82,SSW,200,4.0,15.0,64,0.00,,,0.01,Wunderground v.1.15,2013-08-04 15:50:00,
2013-08-04 12:59:00,74.6,61.6,29.82,South,190,3.0,15.0,64,0.00,,,0.01,Wunderground v.1.15,2013-08-04 15:59:00,
2013-08-04 13:10:00,75.4,61.5,29.82,SSW,198,5.0,15.0,62,0.00,,,0.01,Wunderground v.1.15,2013-08-04 16:10:00,
2013-08-04 13:20:00,74.3,60.0,29.82,SSW,202,5.0,5.0,61,0.00,,,0.01,Wunderground v.1.15,2013-08-04 16:20:00,
2013-08-04 13:30:00,73.9,61.4,29.82,SW,222,4.0,15.0,65,0.00,,,0.01,Wunderground v.1.15,2013-08-04 16:30:00,
2013-08-04 13:40:00,74.6,61.6,29.82,SE,136,3.0,15.0,64,0.00,,,0.01,Wunderground v.1.15,2013-08-04 16:40:00,
2013-08-04 13:49:00,74.8,61.8,29.82,SSE,157,5.0,15.0,64,0.00,,,0.01,Wunderground v.1.15,2013-08-04 16:49:00,
2013-08-04 14:00:00,74.7,61.7,29.82,South,190,4.0,4.0,64,0.00,,,0.01,Wunderground v.1.15,2013-08-04 17:00:00,
2013-08-04 14:10:00,75.2,60.4,29.82,West,271,3.0,15.0,60,0.00,,,0.01,Wunderground v.1.15,2013-08-04 17:10:00,
2013-08-04 14:20:00,76.6,62.1,29.82,SSW,197,2.0,15.0,61,0.00,,,0.01,Wunderground v.1.15,2013-08-04 17:20:00,
2013-08-04 14:30:00,75.1,60.7,29.82,SSW,197,4.0,15.0,61,0.00,,,0.01,Wunderground v.1.15,2013-08-04 17:30:00,
2013-08-04 14:40:00,76.3,60.9,29.82,SSW,212,2.0,2.0,59,0.00,,,0.01,Wunderground v.1.15,2013-08-04 17:40:00,
2013-08-04 14:49:00,77.2,62.7,29.82,SSE,167,2.0,15.0,61,0.00,,,0.01,Wunderground v.1.15,2013-08-04 17:49:00,
2013-08-04 15:00:00,77.2,62.2,29.82,WSW,240,3.0,15.0,60,0.00,,,0.01,Wunderground v.1.15,2013-08-04 18:00:00,
2013-08-04 15:10:00,77.1,60.7,29.81,South,169,3.0,15.0,57,0.00,,,0.01,Wunderground v.1.15,2013-08-04 18:10:00,
2013-08-04 15:20:00,77.0,61.1,29.81,SW,232,3.0,15.0,58,0.00,,,0.01,Wunderground v.1.15,2013-08-04 18:20:00,
2013-08-04 15:30:00,76.9,62.0,29.81,WSW,256,3.0,3.0,60,0.00,,,0.01,Wunderground v.1.15,2013-08-04 18:30:00,
2013-08-04 15:40:00,77.2,59.8,29.81,South,181,4.0,15.0,55,0.00,,,0.01,Wunderground v.1.15,2013-08-04 18:40:00,
2013-08-04 15:50:00,77.1,60.7,29.81,South,180,4.0,15.0,57,0.00,,,0.01,Wunderground v.1.15,2013-08-04 18:50:00,
2013-08-04 16:00:00,77.4,58.9,29.81,SW,218,5.0,5.0,53,0.00,,,0.01,Wunderground v.1.15,2013-08-04 19:00:00,
2013-08-04 16:10:00,77.6,60.7,29.81,SW,226,3.0,15.0,56,0.00,,,0.01,Wunderground v.1.15,2013-08-04 19:10:00,
2013-08-04 16:20:00,77.2,61.8,29.81,South,170,4.0,4.0,59,0.00,,,0.01,Wunderground v.1.15,2013-08-04 19:20:00,
2013-08-04 16:30:00,76.2,59.9,29.81,SW,226,3.0,15.0,57,0.00,,,0.01,Wunderground v.1.15,2013-08-04 19:30:00,
2013-08-04 16:40:00,76.7,63.2,29.81,SSW,200,3.0,15.0,63,0.00,,,0.01,Wunderground v.1.15,2013-08-04 19:40:00,
2013-08-04 16:50:00,76.3,61.4,29.81,South,179,6.0,6.0,60,0.00,,,0.01,Wunderground v.1.15,2013-08-04 19:50:00,
2013-08-04 16:59:00,76.3,61.9,29.81,SE,145,5.0,5.0,61,0.00,,,0.01,Wunderground v.1.15,2013-08-04 19:59:00,
2013-08-04 17:10:00,76.1,62.1,29.81,South,187,5.0,5.0,62,0.00,,,0.01,Wunderground v.1.15,2013-08-04 20:10:00,
2013-08-04 17:20:00,76.5,63.0,29.81,SSW,204,4.0,15.0,63,0.00,,,0.01,Wunderground v.1.15,2013-08-04 20:20:00,
2013-08-04 17:30:00,76.2,61.8,29.81,SSW,192,5.0,15.0,61,0.00,,,0.01,Wunderground v.1.15,2013-08-04 20:30:00,
2013-08-04 17:40:00,76.4,61.0,29.81,SSE,165,4.0,4.0,59,0.00,,,0.01,Wunderground v.1.15,2013-08-04 20:40:00,
2013-08-04 17:50:00,76.8,61.9,29.81,SSW,192,4.0,15.0,60,0.00,,,0.01,Wunderground v.1.15,2013-08-04 20:50:00,
2013-08-04 17:59:00,76.4,60.0,29.81,SW,236,4.0,15.0,57,0.00,,,0.01,Wunderground v.1.15,2013-08-04 20:59:00,
2013-08-04 18:09:00,76.3,59.9,29.81,SSE,158,4.0,4.0,57,0.00,,,0.01,Wunderground v.1.15,2013-08-04 21:09:00,
2013-08-04 18:20:00,76.3,60.4,29.81,SSW,204,2.0,15.0,58,0.00,,,0.01,Wunderground v.1.15,2013-08-04 21:20:00,
2013-08-04 18:30:00,75.8,60.0,29.81,SSW,205,4.0,15.0,58,0.00,,,0.01,Wunderground v.1.15,2013-08-04 21:30:00,
2013-08-04 18:40:00,75.9,60.5,29.81,South,176,3.0,15.0,59,0.00,,,0.01,Wunderground v.1.15,2013-08-04 21:40:00,
2013-08-04 18:50:00,75.3,60.9,29.81,SSW,198,3.0,3.0,61,0.00,,,0.01,Wunderground v.1.15,2013-08-04 21:50:00,
2013-08-04 18:59:00,74.5,60.6,29.81,SSW,200,3.0,3.0,62,0.00,,,0.01,Wunderground v.1.15,2013-08-04 21:59:00,
2013-08-04 19:10:00,74.0,60.6,29.82,SSW,195,3.0,15.0,63,0.00,,,0.01,Wunderground v.1.15,2013-08-04 22:10:00,
2013-08-04 19:20:00,73.3,62.1,29.82,SSW,201,3.0,15.0,68,0.00,,,0.01,Wunderground v.1.15,2013-08-04 22:20:00,
2013-08-04 19:30:00,72.7,62.3,29.83,SE,139,2.0,2.0,70,0.00,,,0.01,Wunderground v.1.15,2013-08-04 22:30:00,
2013-08-04 19:40:00,72.2,62.3,29.83,SSW,193,2.0,15.0,71,0.00,,,0.01,Wunderground v.1.15,2013-08-04 22:40:00,
2013-08-04 19:50:00,71.4,61.9,29.83,SSW,198,2.0,15.0,72,0.00,,,0.01,Wunderground v.1.15,2013-08-04 22:50:00,
2013-08-04 20:00:00,70.4,61.7,29.84,SSW,193,1.0,15.0,74,0.00,,,0.01,Wunderground v.1.15,2013-08-04 23:00:00,
2013-08-04 20:10:00,69.7,61.4,29.84,South,190,2.0,15.0,75,0.00,,,0.01,Wunderground v.1.15,2013-08-04 23:10:00,
2013-08-04 20:20:00,69.1,61.6,29.84,SSW,192,2.0,2.0,77,0.00,,,0.01,Wunderground v.1.15,2013-08-04 23:20:00,
2013-08-04 20:30:00,68.3,61.2,29.84,SSW,194,1.0,15.0,78,0.00,,,0.01,Wunderground v.1.15,2013-08-04 23:30:00,
2013-08-04 20:40:00,67.4,61.0,29.85,SSW,197,1.0,15.0,80,0.00,,,0.01,Wunderground v.1.15,2013-08-04 23:40:00,
2013-08-04 20:50:00,66.6,60.9,29.85,SSW,197,0.0,15.0,82,0.00,,,0.01,Wunderground v.1.15,2013-08-04 23:50:00,
2013-08-04 21:00:00,65.5,60.5,29.85,SSW,198,0.0,15.0,84,0.00,,,0.01,Wunderground v.1.15,2013-08-05 00:00:00,
2013-08-04 21:10:00,64.3,60.0,29.85,SSW,198,0.0,15.0,86,0.00,,,0.01,Wunderground v.1.15,2013-08-05 00:10:00,
2013-08-04 21:20:00,63.4,59.5,29.85,SSW,197,0.0,15.0,87,0.00,,,0.01,Wunderground v.1.15,2013-08-05 00:20:00,
2013-08-04 21:30:00,62.9,59.6,29.86,South,190,0.0,15.0,89,0.00,,,0.01,Wunderground v.1.15,2013-08-05 00:30:00,
2013-08-04 21:40:00,62.7,59.7,29.86,South,190,0.0,15.0,90,0.00,,,0.01,Wunderground v.1.15,2013-08-05 00:40:00,
2013-08-04 21:50:00,63.7,60.7,29.86,SSE,147,1.0,15.0,90,0.00,,,0.01,Wunderground v.1.15,2013-08-05 00:50:00,
2013-08-04 22:00:00,65.9,61.3,29.86,SSW,203,3.0,15.0,85,0.00,,,0.01,Wunderground v.1.15,2013-08-05 01:00:00,
2013-08-04 22:09:00,66.3,61.3,29.86,South,187,2.0,15.0,84,0.00,,,0.01,Wunderground v.1.15,2013-08-05 01:09:00,
2013-08-04 22:19:00,66.4,61.4,29.86,South,186,2.0,15.0,84,0.00,,,0.01,Wunderground v.1.15,2013-08-05 01:19:00,
2013-08-04 22:30:00,66.4,61.8,29.86,South,184,2.0,2.0,85,0.00,,,0.01,Wunderground v.1.15,2013-08-05 01:30:00,
2013-08-04 22:40:00,66.1,61.5,29.86,SSE,160,2.0,2.0,85,0.00,,,0.01,Wunderground v.1.15,2013-08-05 01:40:00,
2013-08-04 22:49:00,65.4,60.8,29.86,SSE,150,0.0,15.0,85,0.00,,,0.01,Wunderground v.1.15,2013-08-05 01:49:00,
2013-08-04 22:59:00,64.6,60.0,29.86,SE,145,1.0,1.0,85,0.00,,,0.01,Wunderground v.1.15,2013-08-05 01:59:00,
2013-08-04 23:10:00,63.8,59.5,29.86,SE,146,0.0,15.0,86,0.00,,,0.01,Wunderground v.1.15,2013-08-05 02:10:00,
2013-08-04 23:20:00,63.6,60.0,29.86,SSE,160,0.0,15.0,88,0.00,,,0.01,Wunderground v.1.15,2013-08-05 02:20:00,
2013-08-04 23:29:00,63.6,60.6,29.85,South,183,1.0,15.0,90,0.00,,,0.01,Wunderground v.1.15,2013-08-05 02:29:00,
2013-08-04 23:40:00,63.7,61.0,29.85,SSW,205,2.0,15.0,91,0.00,,,0.01,Wunderground v.1.15,2013-08-05 02:40:00,
2013-08-04 23:50:00,63.9,60.9,29.86,WSW,257,2.0,2.0,90,0.00,,,0.01,Wunderground v.1.15,2013-08-05 02:50:00,
2013-08-04 23:59:00,63.3,60.3,29.86,SSW,203,0.0,15.0,90,0.00,,,0.00,Wunderground v.1.15,2013-08-05 02:59:00,